Regional Weather Roundup
Issued by NWS

Home | Current Version | Previous Version | Text Only | Print | Product List | Glossary On
Versions: 1 2 3 4 5 6 7 8 9 10 11 12 13 14 15 16 17 18 19 20 21 22 23 24 25 26 27 28 29 30 31 32 33 34 35 36 37 38 39 40 41 42 43 44 45 46 47 48 49 50
000
ASUS43 KDMX 010203
RWRIA

WEATHER ROUNDUP FOR IOWA
NATIONAL WEATHER SERVICE DES MOINES IA
900 PM CDT SAT APR 30 2016

NOTE: "FAIR" INDICATES FEW OR NO CLOUDS BELOW 12,000 FEET WITH NO
SIGNIFICANT WEATHER AND/OR OBSTRUCTIONS TO VISIBILITY.

* - THESE STATIONS ARE NOT NWS STATIONS...THUS NOT UNDER NWS
QUALITY CONTROL.  THEY ALSO DO NOT REPORT WEATHER SUCH
AS PRECIPITATION OR FOG.

IAZ001>003-012>014-020>022-031>034-043>046-010300-
   NORTHWEST IOWA

CITY           SKY/WX    TMP DP  RH WIND       PRES   REMARKS
CARROLL *      CLOUDY    46  45  93 E15G26    29.89R FOG
CHEROKEE *     LGT SNOW  43  43 100 NE18G29   29.95R
DENISON *      CLOUDY    46  45  93 E20G26    29.86R FOG
LE MARS *      CLOUDY    45  41  87 NE21G29   29.96R FOG
ORANGE CITY *  CLOUDY    43  41  93 E18G30    29.96R
SHELDON *      CLOUDY    43  43 100 NE23G33   29.97R FOG
SIOUX CITY     CLOUDY    46  42  86 NE22G30   29.91R
SPENCER        CLOUDY    43  40  89 NE25G33   29.98S
STORM LAKE *   CLOUDY    43  43 100 E29G36    29.92R FOG
$$

IAZ055>058-069>071-079>083-090>094-010300-
   SOUTHWEST IOWA

CITY           SKY/WX    TMP DP  RH WIND       PRES   REMARKS
ATLANTIC *     CLOUDY    48  48 100 NE13      29.84R
AUDUBON *      LGT RAIN  46  45  93 NE13G18   29.87R
CLARINDA *       N/A    N/A N/A N/A MISG        N/A
COUNCIL BLFS * CLOUDY    48  48 100 E14       29.82R
CRESTON *      CLOUDY    50  48  93 E17       29.83R
HARLAN  *      CLOUDY    46  46 100 E16G25    29.87S FOG
LAMONI         CLOUDY    50  50 100 NE9       29.82R FOG
RED OAK *      CLOUDY    52  50  93 E13G18    29.82R
SHENANDOAH *   CLOUDY    54  54 100 E9        29.82R
$$

IAZ047>049-059>061-072>074-084-010300-
   CENTRAL IOWA

CITY           SKY/WX    TMP DP  RH WIND       PRES   REMARKS
AMES           CLOUDY    46  46 100 E18G30    29.89R
ANKENY *       CLOUDY    46  46 100 E15G23    29.87R FOG
BOONE *        CLOUDY    45  45 100 E23       29.88R FOG
CHARITON *     CLOUDY    48  48 100 E14       29.84R
DES MOINES     DRIZZLE   48  44  86 E13G23    29.86R FOG
GRINNELL*      LGT RAIN  45  45 100 NE18G25   29.89R
KNOXVILLE *    CLOUDY    46  45  93 E16G24    29.84S FOG
MARSHALLTOWN   CLOUDY    45  42  89 E22G28    29.90R
NEWTON *       CLOUDY    46  46 100 E18G24    29.88S FOG
PELLA *        CLOUDY    46  46 100 E10G20    29.87S FOG
$$

IAZ004>006-015-016-023>025-035-036-010300-
   NORTH CENTRAL IOWA

CITY           SKY/WX    TMP DP  RH WIND       PRES   REMARKS
ALGONA *       CLOUDY    45  43  93 NE18G25   29.98R
CLARION *      CLOUDY    45  45 100 E20G29    29.95R FOG
ESTHERVILLE    LGT RAIN  42  41  96 NE21G31   30.00R
FORT DODGE *   CLOUDY    45  39  81 NE18G25   29.94R
MASON CITY     CLOUDY    43  40  89 NE22G29   29.99S
FOREST CITY *  CLOUDY    43  37  81 NE15G25   29.99S
WEBSTER CITY * CLOUDY    45  45 100 NE24G33   29.91R
IOWA FALLS *   CLOUDY    45  43  93 NE15G23   29.93S
$$

IAZ007>011-017>019-026>030-037>042-050>054-066-010300-
   NORTHEAST IOWA

CITY           SKY/WX    TMP DP  RH WIND       PRES   REMARKS
CEDAR RAPIDS   CLOUDY    45  44  97 E24G32    29.89R
CHARLES CITY * CLOUDY    45  43  93 E20G30    29.97S
CLINTON *      CLOUDY    45  43  93 E23       29.91R
DECORAH *      CLOUDY    43  43 100 E16       29.98S FOG
DUBUQUE        CLOUDY    43  41  93 NE17      29.94R
MONTICELLO *   CLOUDY    45  43  93 E13G23    29.92R
OELWEIN *      CLOUDY    43  43 100 E22G29    29.94R
WATERLOO       CLOUDY    44  41  89 NE22G29   29.94R
$$

IAZ064-065-067-068-078-010300-
   EAST CENTRAL IOWA

CITY           SKY/WX    TMP DP  RH WIND       PRES   REMARKS
DAVENPORT      CLOUDY    45  43  93 E21G28    29.89S FOG
IOWA CITY      CLOUDY    46  44  93 NE13      29.91R FOG
MT. PLEASANT * CLOUDY    50  50 100 NE13      29.86R
MUSCATINE *    CLOUDY    48  45  87 E14G23    29.89R
QUAD CITIES    CLOUDY    47  43  86 E17       29.89R
$$

IAZ062-063-075>077-085>089-095>099-010300-
   SOUTHEAST IOWA

CITY           SKY/WX    TMP DP  RH WIND       PRES   REMARKS
BURLINGTON     CLOUDY    48  48 100 NE15      29.83S FOG
FAIRFIELD *    CLOUDY    46  46 100 NE14      29.86R FOG
FORT MADISON * CLOUDY    48  48 100 NE9G16    29.84R FOG
KEOKUK *       CLOUDY    54  54 100 NE9       29.81R FOG
OSKALOOSA *    CLOUDY    45  45 100 E17G25    29.87R FOG
OTTUMWA        CLOUDY    46  45  96 E17       29.86R
WASHINGTON *   CLOUDY    46  46 100 E21G29    29.87S FOG
$$

ABBREVIATIONS USED IN REMARKS
   TC - TEMPERATURES IN CELSIUS
  WCI - WIND CHILL INDEX
   HX - HEAT INDEX
  VSB - VISIBILITY
$$





USA.gov is the U.S. government's official web portal to all federal, state and local government web resources and services.